Regional Weather Roundup
Issued by NWS Wakefield, VA

Home | Current Version | Previous Version | Graphics & Text | Print | Product List | Glossary On
Versions: 1 2 3 4 5 6 7 8 9 10 11 12 13 14 15 16 17 18 19 20 21 22 23 24 25 26 27 28 29 30 31 32 33 34 35 36 37 38 39 40 41 42 43 44 45 46 47 48 49 50
000
ASUS41 KAKQ 261115
RWRAKQ

REGIONAL WEATHER ROUNDUP
NATIONAL WEATHER SERVICE WAKEFIELD VA
700 AM EDT SAT MAY 26 2018

Note: "fair" indicates few or no clouds below 12,000 feet with no
significant weather and/or obstructions to visibility. * = Denotes
station may not report precipitation (e.g., rain,snow,etc.),
thunder or fog.

VAZ042-051-052>054-056-261200-
NORTHERN VIRGINIA

CITY           SKY/WX    TMP DP  RH WIND       PRES   REMARKS
WASH NATIONAL  PTSUNNY   73  67  81 S8        29.88R
DULLES         PTSUNNY   71  68  90 SW7       29.88R
FORT BELVOIR   FAIR      72  67  84 CALM      29.88R
QUANTICO       FAIR      73  69  87 SW8       29.89S
FREDERICKSBRG* PTSUNNY   73  67  84 SW7       29.89S
STAFFORD*      FAIR      72  71  97 CALM      29.93S
WARRENTON      PTSUNNY   72  65  80 SW5       29.89R
CULPEPER*      FAIR      71  67  87 CALM      29.90S
MANASSAS*      FAIR      70  68  93 S3        29.89R
LEESBURG*      FAIR      73  70  88 CALM      29.89S
WINCHESTER     PTSUNNY   72  64  78 SW6       29.91R
FRONT ROYAL*   PTSUNNY   70  64  83 S6        29.89R
LURAY*         FAIR      70  64  83 SW6       29.92R HAZE
$$

VAZ048-049-060>072-079>083-261200-
CENTRAL AND SOUTH CENTRAL VIRGINIA

CITY           SKY/WX    TMP DP  RH WIND       PRES   REMARKS
RICHMOND       PTSUNNY   71  68  90 SW9       29.94R
CHESTERFIELD*  FAIR      71  68  90 S9        29.95R
PETERSBURG*    FAIR      69  67  91 SW3       29.96R
HANOVER        FAIR      73  67  81 S8        29.94R
TAPPAHANNOCK*  FAIR      72  69  92 S7        29.93R
QUINTON*       FAIR      70  70 100 SW5       29.93S
CHARLOTTSVILLE FAIR      71  67  87 S9        29.91R
GORDONSVILLE*  FAIR      68  68 100 SW6       29.91R
ORANGE*        CLOUDY    68  64  88 S8        29.91R
LOUISA*        FAIR      69  66  89 SW6       29.96S
BUMPASS*       FAIR      70  68  93 SW5       29.92R
FARMVILLE*     FAIR     N/A N/A N/A S5        29.93S
CREWE*         FAIR      67  67 100 CALM      29.95S
FORT PICKETT*  FAIR      69  69 100 S6        29.96S
CHASE CITY*    FAIR      71  71 100 CALM      29.97S
CLARKSVILLE*   PTSUNNY   70  70 100 S6        29.97R
SOUTH HILL*    FAIR      67  67 100 S3        30.03R
LAWRENCEVILLE* FAIR      69  68  97 S5        29.97S
EMPORIA*       FAIR      68  68 100 CALM      29.98S FOG
$$

VAZ088>098-261200-
SOUTHEAST VIRGINIA

CITY           SKY/WX    TMP DP  RH WIND       PRES   REMARKS
NORFOLK        FAIR      73  71  93 SW13      29.95S
VIRGINIA BEACH FAIR      72  69  90 SW10      29.96R
NORFOLK NAVAL  FAIR      73  68  84 SW10      29.97R
WEST POINT*    FAIR      72  68  89 S6        29.95S
SALUDA*        FAIR      72  72 100 S7        29.93S
NEWPORT NEWS   FAIR      73  69  87 SW10      29.95S
LANGLEY AFB    FAIR      73  71  91 NW12      29.96R
FORT EUSTIS    FAIR      73  70  91 SW8       29.94R
WILLIAMSBURG*  FAIR      73  70  88 SW5       29.96R
HR EXEC AP*    FAIR      71  69  93 SW6       29.98R
FRANKLIN*      FAIR      70  70  99 SW5       29.98S
US460-WAKEFLD  FAIR      71  69  93 SW6       29.96S FOG
$$

VAZ020-022-025-037-045-261200-
WEST CENTRAL AND SOUTHWEST VIRGINIA

CITY           SKY/WX    TMP DP  RH WIND       PRES   REMARKS
STAUNTON*      FAIR      68  63  85 SW3       29.96R
WAYNESBORO*    FAIR      67  64  91 CALM      29.95S
HOT SPRINGS VA CLOUDY    63  60  90 W10       30.06R
LYNCHBURG      FAIR      67  65  93 S5        29.96R
DANVILLE       CLOUDY    67  67 100 CALM      29.97R
SOUTH BOSTON*  FAIR      69  68  95 CALM      29.96S
MARTINSVILLE   CLOUDY    68  66  92 CALM      29.99S
ROANOKE        MOCLDY    71  65  81 CALM      29.98R
BLACKSBURG     CLOUDY    65  64  95 CALM      30.03R
DUBLIN*        FAIR      65  64  98 CALM      30.02R
MARION*        CLOUDY    62  61  98 CALM      30.05R
HILLSVILLE*    MOCLDY    65  64  96 S3        30.02S
RICHLANDS*     CLOUDY    64  55  72 CALM      30.02S
WISE*          CLOUDY    64  64 100 W5        30.03R
ABINGDON*      CLOUDY    66  65  96 CALM      30.00R
$$

MDZ021>025-VAZ099-100-261200-
SOUTHERN MARYLAND AND THE DELMARVA PENINSULA

CITY           SKY/WX    TMP DP  RH WIND       PRES   REMARKS
PATUXENT RIVER FAIR      76  68  76 SW10G18   29.89R
BAY BRIDGE APT FAIR      73  68  83 S5        29.87S
LEONARDTOWN    FAIR      72  66  83 S5        29.92R
DOVER          FAIR      73  67  82 SW9       29.87R
GEORGETOWN     FAIR      72  68  87 SW6       29.90R
EASTON         MOSUNNY   75  68  78 SW6       29.91S
CAMBRIDGE      MOSUNNY   73  70  88 VRB7G14   29.89S
SALISBURY      FAIR      73  71  93 SW7       29.91R
TANGIER        FAIR      73  73 100 SW12      29.93R
OCEAN CITY     FAIR      73  71  93 SW12      29.91R
WALLOPS ISLAND FAIR      74  71  91 SW8       29.93R
ACCOMACK*      FAIR      74  71  90 SW7       29.94S
$$

NCZ012>017-030>032-261200-
NORTH CENTRAL AND EASTERN NORTH CAROLINA

CITY           SKY/WX    TMP DP  RH WIND       PRES   REMARKS
ROANOKE RAPIDS FAIR      68  68 100 CALM      29.98S
RALEIGH        CLOUDY    70  70 100 SW7       29.98S
ELIZABETH CITY FAIR      73  72  96 SW10      29.99R
AHOSKIE*       FAIR      69  69 100 CALM      29.99S
EDENTON*       CLOUDY    74  71  92 SW8       30.01R
CURRITUCK*     NOT AVBL
KILL DEVIL HLS FAIR      73  70  93 CALM      29.99S
MANTEO         FAIR      73  70  92 SW9       30.01S
CAPE HATTERAS  FAIR      74  73  97 SW6       30.02R
TARBORO*       NOT AVBL
GOLDSBORO      CLOUDY    72  70  95 SW5       29.99R
WASHINGTON     CLOUDY    71  70  97 CALM      30.01R
GREENVILLE     CLOUDY    72  70  94 SW6       30.02R
NEW BERN       FAIR      70  70 100 S5        30.02R
WILMINGTON     FAIR      72  70  93 CALM      30.01R
$$

VAZ048-261200-
ELSEWHERE

CITY           SKY/WX    TMP DP  RH WIND       PRES   REMARKS
HARRISBURG PA  FAIR      69  66  90 CALM      29.85R
BALTIMORE      PTSUNNY   73  67  81 SW6       29.86S
ANNAPOLIS      FAIR     N/A N/A N/A VRB3      29.87R
ANDREWS AFB    PTSUNNY   73  66  78 SW8       29.87S
PHILADELPHIA   FAIR      72  65  78 SW7       29.86R
HENDERSON NC   PTSUNNY   67  65  94 SW7       29.98S
GREENSBORO     MOCLDY    71  69  93 SW12      29.98R
ROCKY MOUNT    PTSUNNY   70  69  97 S6        29.99R
$$

VAZ100-261200-
MARINE

STATION/POSITION TIME  TEMP    WIND        PRES    WAVE   SWELL
                       AIR SEA DIR/SP/G            HT/PER HT/PER
                 (UTC) (F)     (DEG/KT/KT) (MB)    (FT/S) (FT/S)
BRANDYWINE LGT   1042   72     230/ 19/ 20 1011.9F
CAPE MAY NJ      1048   72 67  210/  9/ 12 1011.4S
LEWES DE         1042   73 65  240/  8/ 13 1011.9R
15NM E FENWICK I 1050   65 63  210/ 14/ 16 1012.8R   3/ 5   2/ 8
OCEAN-CITY-INLET 1042   72 62  230/ 10/ 12 1013.1R
WACHAPREAGUE VA  1048   74 76  160/  6/  8 1013.8R
THOMAS POINT MD  1100   73 69  230/  8/  9 1012.4S
GOOSES REEF MD   1100   74     220/ 12/ 12 1013.0    1/ 3
COVE POINT MD    1048   74     240/ 17/ 22 1012.5R
SOLOMONS ISLAND  1048   73 71  220/ 11/ 14 1012.0R
BISHOPS HEAD MD  1048   74 75  200/ 12/ 14 1013.1R
PINEY POINT MD   1048          240/  4/  6   N/A
POTOMAC MD       1100   74 74  220/ 10/ 14 1012.2    1/ 2
CAMBRIDGE MD     1042   74 74              1013.0R
LEWISETTA VA     1048   73 74  220/  9/ 12 1012.8R
RAPPAHANNOCK LGT 1048          210/ 12/ 13 1014.6R
STINGRAY PT      1100   73 74  240/ 12/ 14 1016.0    1/ 2
YORK RVR RNG VA  1048   74     250/ 11/ 12 1014.6R
YORKTOWN VA      1048   73 74  240/  7/ 12 1013.6R
DOMINION TERM VA 1048   73     230/ 12/ 13 1014.7R
KIPTOPEKE VA     1042      72  240/ 11/ 13   N/A
CAPE HENRY VA    1048   73     210/  8/ 14 1012.9R
WILLOUBY STN VA  1048   72     220/ 13/ 16 1013.6R
S CRANEY ISL VA  1048   72     220/  9/ 11 1014.4R
CAPE HENRY BUOY  1100      71                N/A     2/ 8
1ST LANDING BUOY 1100   73 73  240/ 12/ 16 1014.1    1/ 3
64NM E OF VA BCH 1050   72 70  210/ 10/ 12 1015.5S   3/ 9   2/ 9
DUCK PIER NC     1048   74 60  230/ 12/ 16 1015.3R
44100 DUCK FRF   1045      72                N/A     2/ 4
44056 DUCK FRF   1100      64                N/A     2/ 9
OREGON INLET NC  1042   75 78  220/ 11/ 13 1015.9R
HATTERAS NC      1048   75 77  230/  6/  8 1016.0R
DIAMOND SHLS NC  1100   77 78  240/ 10/ 12 1016.9
CAPE LOOKOUT NC  1100          230/  6/  7 1016.8R
$$



USA.gov is the U.S. government's official web portal to all federal, state and local government web resources and services.